This is the latest recevied weather packets stored in our database for station/object DO7CRZ-12. If no packets are shown the sender has not sent any weather packets the latest 10 day(s).
| Time | Temp. | Humidity | Pressure | Rain* | Wind** | Luminosity | Snow |
|---|---|---|---|---|---|---|---|
| 1777742839 | 26.11° C | 14% | 1017.9 hPa | 0 mm | - | 24 W/m² | - |
| 1777742236 | 27.78° C | 14% | 1018 hPa | 0 mm | - | 45 W/m² | - |
| 1777741648 | 29.44° C | 14% | 1018 hPa | 0 mm | - | 123 W/m² | - |
| 1777741046 | 30° C | 14% | 1018.1 hPa | 0 mm | - | 139 W/m² | - |
| 1777739840 | 30.56° C | 13% | 1018.2 hPa | 0 mm | - | 175 W/m² | - |
| 1777739237 | 30.56° C | 14% | 1018.3 hPa | 0 mm | - | 190 W/m² | - |
| 1777738649 | 31.67° C | 13% | 1018.4 hPa | 0 mm | - | 200 W/m² | - |
| 1777738047 | 31.11° C | 12% | 1018.7 hPa | 0 mm | - | 192 W/m² | - |
| 1777737444 | 31.67° C | 12% | 1018.9 hPa | 0 mm | - | 185 W/m² | - |
| 1777736841 | 31.67° C | 13% | 1018.8 hPa | 0 mm | - | 186 W/m² | - |
| 1777736238 | 30° C | 14% | 1018.9 hPa | 0 mm | - | 191 W/m² | - |
| 1777735635 | 30.56° C | 14% | 1019 hPa | 0 mm | - | 208 W/m² | - |
| 1777735047 | 30° C | 14% | 1019.2 hPa | 0 mm | - | 231 W/m² | - |
| 1777733842 | 30.56° C | 15% | 1019.4 hPa | 0 mm | - | 283 W/m² | - |
| 1777733239 | 30° C | 16% | 1019.7 hPa | 0 mm | - | 304 W/m² | - |
| 1777732636 | 30° C | 17% | 1019.7 hPa | 0 mm | - | 327 W/m² | - |
| 1777732069 | 28.89° C | 17% | 1019.8 hPa | 0 mm | - | 336 W/m² | - |
| 1777731445 | 30° C | 16% | 1020 hPa | 0 mm | - | 350 W/m² | - |
| 1777730843 | 30.56° C | 15% | 1020.2 hPa | 0 mm | - | 368 W/m² | - |
| 1777730240 | 30° C | 16% | 1020.2 hPa | 0 mm | - | 384 W/m² | - |
| 1777729637 | 30° C | 17% | 1020.4 hPa | 0 mm | - | 400 W/m² | - |
| 1777729050 | 30° C | 16% | 1020.5 hPa | 0 mm | - | 416 W/m² | - |
| 1777728446 | 30.56° C | 16% | 1020.6 hPa | 0 mm | - | 433 W/m² | - |
| 1777727241 | 30.56° C | 16% | 1020.9 hPa | 0 mm | - | 489 W/m² | - |
| 1777726638 | 30.56° C | 16% | 1021 hPa | 0 mm | - | 552 W/m² | - |
* Rain latest hour (hover to see other rain measurements)
** Current wind speed in m/s (hover to see current wind gust speed)